Location: Arrien
(42.8963°N, 1.0429°E)
Time: 09:33:05
(UTC+00:00)

SL-16 R/B - Pass Details

Date: 23 March 2026
Orbit: 841 x 845 km, 71.0° (Epoch: 19 April)

Event Time Altitude Azimuth Distance (km) Brightness Sun altitude
Exits shadow 23:42:19 13° 4° (N) 2,294 5.0 -45.5°
Drops below altitude 10° 23:42:53 10° 7° (N) 2,472 5.2 -45.6°
Sets 23:45:39 0° 18° (NNE) 3,412 6.0 -45.6°
